Lexington Weather

Lexington, Massachusetts, USA

47°F
12/8/2022 3:34pm 
  • Lexington Conditions: Clear
  • Temperature: 46.9°F / 8.3°CColder 2.0°F than last hour.
  • Dew Point: 34.5°FDecreased 1.1°Fsince last hour.
  • Relative Humidity: 62%Increased 2.0% since last hour.
  • Wind: Wind from N N 4 mph, 10-min avg: 3 mph, gust: 12 mph
  • Barometer: 30.09 inRising 0.02  inHg/hr Rising Slowly
  • Visibility: 10 miles
  • Rain Today: 0.00 in
  •   

Warning: Undefined variable $rc in /homepages/6/d276339138/htdocs/weather/20190804/ssi/nwsProduct.php on line 323

Warning: Undefined variable $rc in /homepages/6/d276339138/htdocs/weather/20190804/ssi/nwsProduct.php on line 325

Warning: Undefined variable $rc in /homepages/6/d276339138/htdocs/weather/20190804/ssi/nwsProduct.php on line 323

Warning: Undefined variable $rc in /homepages/6/d276339138/htdocs/weather/20190804/ssi/nwsProduct.php on line 325

Warning: Undefined variable $rc in /homepages/6/d276339138/htdocs/weather/20190804/ssi/nwsProduct.php on line 323

Warning: Undefined variable $rc in /homepages/6/d276339138/htdocs/weather/20190804/ssi/nwsProduct.php on line 325

Warning: Undefined variable $rc in /homepages/6/d276339138/htdocs/weather/20190804/ssi/nwsProduct.php on line 323

Warning: Undefined variable $rc in /homepages/6/d276339138/htdocs/weather/20190804/ssi/nwsProduct.php on line 325

Warning: Undefined variable $rc in /homepages/6/d276339138/htdocs/weather/20190804/ssi/nwsProduct.php on line 323

Warning: Undefined variable $rc in /homepages/6/d276339138/htdocs/weather/20190804/ssi/nwsProduct.php on line 325

Warning: Undefined variable $rc in /homepages/6/d276339138/htdocs/weather/20190804/ssi/nwsProduct.php on line 323

Warning: Undefined variable $rc in /homepages/6/d276339138/htdocs/weather/20190804/ssi/nwsProduct.php on line 325

Warning: Undefined variable $rc in /homepages/6/d276339138/htdocs/weather/20190804/ssi/nwsProduct.php on line 323

Warning: Undefined variable $rc in /homepages/6/d276339138/htdocs/weather/20190804/ssi/nwsProduct.php on line 325

Regional Weather Roundup
for Boston, MA

        
000
ASUS41 KBOX 052210
RWRBOX

REGIONAL WEATHER ROUNDUP
NATIONAL WEATHER SERVICE BOSTON/NORTON MA
500 PM EST MON DEC 05 2022

NOTE:  "FAIR" INDICATES FEW OR NO CLOUDS BELOW 12,000 FEET WITH NO 
SIGNIFICANT WEATHER AND/OR OBSTRUCTIONS TO VISIBILITY.

MAZALL-052300-
EASTERN MASSACHUSETTS
  
CITY           SKY/WX    TMP DP  RH WIND       PRES   REMARKS
BOSTON         MOCLDY    44  33  65 S8        30.32R                  
BEVERLY        CLEAR     44  32  62 S8        30.31R                  
LAWRENCE       CLEAR     45  31  58 S3        30.32R                  
BEDFORD        CLEAR     44  31  60 S6        30.30R                  
NORWOOD        CLEAR     45  32  60 S5        30.31R                  
MARSHFIELD       N/A     43  34  70 CALM      30.32R                  
PLYMOUTH       PTCLDY    44  34  67 CALM      30.31R                  
TAUNTON          N/A    N/A N/A N/A MISG      30.32R                  
NEW BEDFORD    MOCLDY    46  36  68 S5        30.31R                  
$$

MAZALL-052300-
CAPE COD AND THE ISLANDS
  
CITY           SKY/WX    TMP DP  RH WIND       PRES   REMARKS
FALMOUTH       NOT AVBL                                               
HYANNIS        CLOUDY    44  36  73 S5        30.32R                  
CHATHAM        CLEAR     44  35  70 S5        30.35R                  
PROVINCETOWN   CLEAR     44  36  73 S10       30.34R                  
NANTUCKET      CLEAR     44  37  76 SE7       30.33R                  
MARTHAS VNYRD  MOCLDY    46  36  68 S7        30.33R                  
$$
 
MAZALL-052300-
CENTRAL AND WESTERN MASSACHUSETTS
  
CITY           SKY/WX    TMP DP  RH WIND       PRES   REMARKS
WORCESTER      CLEAR     41  31  67 SW6       30.28R                  
FITCHBURG      CLEAR     41  29  62 S3        30.30R                  
ORANGE         CLEAR     37  23  56 SE5       30.28R                  
SPRINGFIELD    MOCLDY    40  24  53 S3        30.27R                  
WESTFIELD      CLEAR     38  23  55 S5        30.28R                  
NORTH ADAMS    CLEAR     41  12  30 VRB3      30.23R                  
PITTSFIELD     CLEAR     37  15  40 CALM      30.22R                  
$$
 
RIZALL-052300-
RHODE ISLAND
  
CITY           SKY/WX    TMP DP  RH WIND       PRES   REMARKS
PROVIDENCE     MOCLDY    43  33  68 SW5       30.32R                  
NEWPORT        CLOUDY    46  35  65 SW5       30.31R                  
BLOCK ISLAND   MOCLDY    45  36  70 SW9       30.33R                  
SMITHFIELD     CLEAR     42  33  70 CALM      30.31R                  
WESTERLY       MOCLDY    46  35  65 S6        30.31R                  
$$
 
CTZALL-052300-
CONNECTICUT
  
CITY           SKY/WX    TMP DP  RH WIND       PRES   REMARKS
BRADLEY INTL   MOCLDY    42  29  59 S6        30.29R                  
HARTFORD       PTCLDY    42  30  62 CALM      30.30R                  
BRIDGEPORT     PTCLDY    44  32  62 S6        30.29R                  
DANBURY        PTCLDY    39  22  50 CALM      30.27S                  
GROTON         PTCLDY    48  35  60 S10       30.31R                  
NEW HAVEN      PTCLDY    40  30  67 CALM      30.29R                  
CHESTER        FAIR      43  36  75 S3        30.29R                  
MERIDEN        PTCLDY    39  30  70 CALM      30.30R                  
WILLIMANTIC    CLEAR     40  33  76 CALM      30.30R                  
OXFORD         PTCLDY    40  24  53 SE5       30.28R                  
$$

MEZ002-015-021-024-NHZ003-005-008-011-012-014-VTZ005-008-052300-
NORTHERN NEW ENGLAND
  
CITY           SKY/WX    TMP DP  RH WIND       PRES   REMARKS
PORTLAND ME    PTCLDY    43  33  68 S7        30.30R                  
BANGOR ME      MOCLDY    41  30  65 S13       30.29R                  
CONCORD NH     CLEAR     39  27  62 SE10      30.28R                  
MANCHESTER NH  MOCLDY    43  28  55 S7        30.28R                  
NASHUA NH      CLEAR     41  30  65 CALM      30.30R                  
PORTSMOUTH NH  MOCLDY    41  29  61 S6        30.30R                  
JAFFREY NH     CLEAR     33  24  69 S3        30.26R                  
KEENE NH       CLEAR     34  24  67 S6          N/A  WCI  29          
BURLINGTON VT  MOCLDY    42  15  33 S12G22    30.15R                  
MT. WASHINGTON CLOUDY    19   7  58 SW37G51     N/A  WCI  -1          
$$

NYZ052-076-052300-
EASTERN NEW YORK
  
CITY           SKY/WX    TMP DP  RH WIND       PRES   REMARKS
ALBANY         MOCLDY    43  18  36 S13G21    30.22R                  
NEW YORK CITY  MOCLDY    45  28  51 S8        30.28R                  
$$
 
ANZALL-052300-
MARINE OBSERVATIONS
  
STATION/POSITION TIME  TEMP    WIND        PRES    VSBY  WAVE
                       AIR SEA DIR/SP/G                  HT/PER
                 (UTC) (F)     (DEG/KT/KT) (MB)    (MI)  (FT/S)
BOSTON BUOY      2150      51  190/ 16/ 19 1027.3R         3/ 4
BUZZARDS BAY     2100   48     200/ 14/ 16 1026.4R
NANTUCKET SOUND  2150   48 49  160/ 12/ 14 1027.0R         1/ 3
MASS BAY-STELLWA 2004   48 50  180/ 14/ 16 1024.5F  1 7/8  3/ 5
ISLE OF SHOALS   2100   47     200/ 20/ 22 1024.8R
S OF BLOCK IS    2156      54                N/A           2/10
$$

......................KEY.........................
  SKY/WX - SKY CONDITION/PRESENT WEATHER
  TMP    - TEMPERATURE IN FAHRENHEIT
  DWPT   - DEWPOINT IN FAHRENHEIT
  RH     - RELATIVE HUMIDITY IN PERCENT
  WIND   - DIRECTION AND SPEED IN MPH
  PRES   - MEAN SEA LEVEL PRESSURE IN INCHES OF HG
  WCI    - WIND CHILL INDEX
  VSB    - VISIBILITY IN MILES
  HX     - HEAT INDEX
  TC     - TEMPERATURE IN CELSIUS
  VRB    - VARIABLE WIND DIRECTION
  N/A    - NOT AVAILABLE
  
      

Other recent Regional Weather Roundups

Thu Dec 8, 3:10pm

Thu Dec 8, 2:10pm

Thu Dec 8, 1:10pm

Thu Dec 8, 12:10pm

Thu Dec 8, 11:10am

Thu Dec 8, 10:10am

Thu Dec 8, 9:10am

Thu Dec 8, 8:10am

Thu Dec 8, 7:10am

Thu Dec 8, 6:10am

Thu Dec 8, 5:10am

Thu Dec 8, 4:10am

Thu Dec 8, 3:10am

Thu Dec 8, 2:10am

Thu Dec 8, 1:10am

Thu Dec 8, 12:10am

Wed Dec 7, 11:10pm

Wed Dec 7, 10:10pm

Wed Dec 7, 9:10pm

Wed Dec 7, 8:10pm

Wed Dec 7, 7:10pm

Wed Dec 7, 6:10pm

Wed Dec 7, 5:10pm

Wed Dec 7, 4:10pm

Wed Dec 7, 3:10pm

Wed Dec 7, 2:10pm

Wed Dec 7, 1:10pm

Wed Dec 7, 12:10pm

Wed Dec 7, 11:10am

Wed Dec 7, 10:10am

Wed Dec 7, 9:10am

Wed Dec 7, 8:10am

Wed Dec 7, 7:10am

Wed Dec 7, 6:10am

Wed Dec 7, 5:10am

Wed Dec 7, 4:10am

Wed Dec 7, 3:10am

Wed Dec 7, 2:10am

Wed Dec 7, 1:10am

Wed Dec 7, 12:10am

Tue Dec 6, 11:10pm

Tue Dec 6, 10:10pm

Tue Dec 6, 9:10pm

Tue Dec 6, 8:10pm

Tue Dec 6, 7:10pm

Tue Dec 6, 6:10pm

Tue Dec 6, 5:10pm

Tue Dec 6, 4:10pm

Tue Dec 6, 3:10pm

Tue Dec 6, 2:10pm

Tue Dec 6, 1:10pm

Tue Dec 6, 12:10pm

Tue Dec 6, 11:10am

Tue Dec 6, 10:10am

Tue Dec 6, 9:10am

Tue Dec 6, 8:10am

Tue Dec 6, 7:10am

Tue Dec 6, 6:10am

Tue Dec 6, 5:10am

Tue Dec 6, 4:10am

Tue Dec 6, 3:10am

Tue Dec 6, 2:10am

Tue Dec 6, 1:10am

Tue Dec 6, 12:10am

Mon Dec 5, 11:10pm

Mon Dec 5, 10:10pm

Mon Dec 5, 9:10pm

Mon Dec 5, 8:10pm

Mon Dec 5, 7:10pm

Mon Dec 5, 6:10pm

Mon Dec 5, 4:10pm

Mon Dec 5, 3:10pm

Mon Dec 5, 2:10pm

Mon Dec 5, 1:10pm

Mon Dec 5, 12:10pm

Mon Dec 5, 11:10am

Mon Dec 5, 10:10am

Mon Dec 5, 9:10am

Mon Dec 5, 8:10am

Mon Dec 5, 7:10am

Mon Dec 5, 6:10am

Mon Dec 5, 5:10am

Mon Dec 5, 4:10am

Mon Dec 5, 3:10am

Mon Dec 5, 2:10am

Mon Dec 5, 1:10am

Mon Dec 5, 12:10am

Sun Dec 4, 11:10pm

Sun Dec 4, 10:10pm

Sun Dec 4, 9:10pm

Sun Dec 4, 8:10pm

Sun Dec 4, 7:10pm

Sun Dec 4, 6:10pm

Sun Dec 4, 5:10pm

Sun Dec 4, 4:10pm

Sun Dec 4, 3:10pm

Sun Dec 4, 2:10pm

Sun Dec 4, 1:10pm

Sun Dec 4, 12:10pm

Sun Dec 4, 11:10am

Sun Dec 4, 10:10am

Sun Dec 4, 9:10am

Sun Dec 4, 8:10am

Sun Dec 4, 7:10am

Sun Dec 4, 6:10am

Sun Dec 4, 5:10am

Sun Dec 4, 4:10am

Sun Dec 4, 3:10am

Sun Dec 4, 2:10am

Sun Dec 4, 1:10am

Sun Dec 4, 12:10am

Sat Dec 3, 11:10pm

Sat Dec 3, 10:10pm

Sat Dec 3, 9:10pm

Sat Dec 3, 8:10pm

Sat Dec 3, 7:10pm

Sat Dec 3, 6:10pm

Sat Dec 3, 5:10pm

Sat Dec 3, 4:10pm

Sat Dec 3, 3:10pm

Sat Dec 3, 2:10pm

Sat Dec 3, 1:10pm

Sat Dec 3, 12:10pm

Sat Dec 3, 11:10am

Sat Dec 3, 10:10am

Sat Dec 3, 9:10am

Sat Dec 3, 8:10am

Sat Dec 3, 7:10am

Sat Dec 3, 6:10am

Sat Dec 3, 5:10am

Sat Dec 3, 4:10am

Sat Dec 3, 3:10am

Sat Dec 3, 2:10am

Sat Dec 3, 1:10am

Sat Dec 3, 12:10am

Fri Dec 2, 11:10pm

Fri Dec 2, 10:10pm

Fri Dec 2, 9:10pm

Fri Dec 2, 8:10pm

Fri Dec 2, 7:10pm

Fri Dec 2, 6:10pm

Fri Dec 2, 5:10pm

Fri Dec 2, 4:10pm

Fri Dec 2, 3:10pm

Fri Dec 2, 2:10pm

Fri Dec 2, 1:10pm

Fri Dec 2, 12:10pm

Fri Dec 2, 11:10am

Fri Dec 2, 10:10am

Fri Dec 2, 9:10am

Fri Dec 2, 8:10am

Fri Dec 2, 7:10am

Fri Dec 2, 6:10am

Fri Dec 2, 5:10am

Fri Dec 2, 4:10am

Fri Dec 2, 3:10am

Fri Dec 2, 2:10am

Fri Dec 2, 1:10am

Fri Dec 2, 12:10am

Thu Dec 1, 11:10pm

Thu Dec 1, 10:10pm

Thu Dec 1, 9:10pm

Thu Dec 1, 8:10pm

Thu Dec 1, 7:10pm

Thu Dec 1, 6:10pm

Thu Dec 1, 5:10pm

Thu Dec 1, 4:10pm

Meta data:

ID: f4111672-64f0-43f5-8c31-bed2a24a65e2
Link: https://api.weather.gov/products/f4111672-64f0-43f5-8c31-bed2a24a65e2